Regional Weather Roundup
Issued by NWS

Home | Current Version | Previous Version | Graphics & Text | Print | Product List | Glossary Off
Versions: 1 2 3 4 5 6 7 8 9 10 11 12 13 14 15 16 17 18 19 20 21 22 23 24 25 26 27 28 29 30 31 32 33 34 35 36 37 38 39 40 41 42 43 44 45 46 47 48 49 50

000
ASUS43 KTOP 260008
RWRKS

WEATHER ROUNDUP FOR KANSAS
NATIONAL WEATHER SERVICE GOODLAND KS
700 PM CDT WED APR 25 2018

NOTE:  "FAIR" INDICATES FEW OR NO CLOUDS BELOW 12,000 FEET WITH NO
SIGNIFICANT WEATHER AND/OR OBSTRUCTIONS TO VISIBILITY.

KSZ001>006-013>018-027>032-041>047-260100-
NORTHWEST KANSAS

CITY           SKY/WX    TMP DP  RH WIND       PRES   REMARKS
GOODLAND       SUNNY     60  30  32 CALM      30.08F
6HR MIN TEMP:  50; 6HR MAX TEMP:  60;

HAYS           SUNNY     57  35  43 N8        30.11F
HILL CITY        N/A     60  36  40 MISG      30.10F
6HR MIN TEMP:  52; 6HR MAX TEMP:  61;

RUSSELL        SUNNY     56  39  53 N12       30.09F
6HR MIN TEMP:  47; 6HR MAX TEMP:  56;

$$

KSZ061>065-074>080-084>089-260100-
SOUTHWEST KANSAS

CITY           SKY/WX    TMP DP  RH WIND       PRES   REMARKS
DODGE CITY     SUNNY     57  35  43 N8        30.10F
6HR MIN TEMP:  45; 6HR MAX TEMP:  59;

ELKHART        SUNNY     62  35  36 N8        30.14F
GARDEN CITY    SUNNY     58  33  39 N9        30.11F
6HR MIN TEMP:  47; 6HR MAX TEMP:  59;

GREAT BEND     SUNNY     52  41  66 NE12      30.11F
LIBERAL        SUNNY     59  35  40 N12       30.13F
PRATT          MOSUNNY   53  38  58 NE10      30.11F
6HR MIN TEMP:  45; 6HR MAX TEMP:  54;

$$

KSZ066>073-081>083-090>101-260100-
SOUTHEAST KANSAS

CITY           SKY/WX    TMP DP  RH WIND       PRES   REMARKS
CHANUTE        CLOUDY    51  48  89 N12       30.03S
6HR MIN TEMP:  51; 6HR MAX TEMP:  53; 6HR PCP:  0.18;

COFFEYVILLE    CLOUDY    53  51  93 NW9       30.01F
6HR MIN TEMP:  51; 6HR MAX TEMP:  54; 6HR PCP:  0.12;

HUTCHINSON     CLOUDY    49  43  80 N8        30.11F
6HR MIN TEMP:  45; 6HR MAX TEMP:  50;

MEDICINE LODGE   N/A     55  41  59 N13       30.11F
NEWTON         CLOUDY    46  43  89 N16       30.11S
PARSONS        CLOUDY    54  50  86 N12       30.02F
6HR MIN TEMP:  52; 6HR MAX TEMP:  55; 6HR PCP:  0.10;

WICHITA INTL   PTSUNNY   50  44  80 N15       30.10S
6HR MIN TEMP:  47; 6HR MAX TEMP:  50;

WICHITA JABRA  CLOUDY    47  45  93 NW14      30.10S
6HR MIN TEMP:  45; 6HR MAX TEMP:  48; 6HR PCP: TRACE;

WICHITA MCCONL CLOUDY    47  43  86 N14G23    30.09S
WINFIELD       CLOUDY    48  45  89 NW16      30.10S
6HR MIN TEMP:  47; 6HR MAX TEMP:  49;

$$

KSZ007>012-019>026-033>040-048>060-102>105-260100-
NORTHEAST KANSAS

CITY           SKY/WX    TMP DP  RH WIND       PRES   REMARKS
CONCORDIA      PTSUNNY   51  40  65 NW7       30.10F
6HR MIN TEMP:  48; 6HR MAX TEMP:  52;

EMPORIA        LGT RAIN  47  45  93 N10       30.07S FOG
6HR MIN TEMP:  47; 6HR MAX TEMP:  49; 6HR PCP:  0.17;

LAWRENCE       CLOUDY    51  48  89 N6        30.06F
6HR MIN TEMP:  49; 6HR MAX TEMP:  51; 6HR PCP:  0.24;

MANHATTAN      CLOUDY    50  44  80 N6        30.10F
6HR MIN TEMP:  47; 6HR MAX TEMP:  50; 6HR PCP:  0.01;

MARYSVILLE     MOSUNNY   52  39  62 N8        30.10F
OLATHE IND     CLOUDY    50  48  93 N10       30.05F
6HR MIN TEMP:  49; 6HR MAX TEMP:  50; 6HR PCP:  0.23;

OLATHE EXE     CLOUDY    48  48 100 N8        30.04F
6HR MIN TEMP:  48; 6HR MAX TEMP:  49; 6HR PCP:  0.27;

SALINA         CLOUDY    50  45  83 N9        30.12F
6HR MIN TEMP:  46; 6HR MAX TEMP:  51; 6HR PCP: TRACE;

TOPEKA BILLARD CLOUDY    50  49  96 N5        30.07S
6HR MIN TEMP:  48; 6HR MAX TEMP:  50; 6HR PCP:  0.22;

TOPEKA FORBES  CLOUDY    50  48  93 N7        30.07S
6HR MIN TEMP:  49; 6HR MAX TEMP:  50; 6HR PCP:  0.25;

$$




USA.gov is the U.S. government's official web portal to all federal, state and local government web resources and services.